• Join FlightAware (Why Join?)
  • Login
  • US Flag 
08:55PM EDT


 

Airport Tracker/Info


-or-


 

Live Flight TrackerFlight Track Log ✈ EGF4673 ✈ 26-Apr-2012 ✈ CYYZ - KLGA

Flight Track Log - Related Links

Times and Time Zones

All times are in EDT time to prevent confusion due to time zone crossing. See the EGF4673 flight status page for this flight to view local times or setup timezone preferences in your user account.

Time Position Orientation Groundspeed Altitude Reporting Facility
EDT Latitude Longitude Course Direction KTS MPH feet Rate Location/Type
11:51AM 43.6587 -79.6008 246° West  Level FlightAware Approximate
11:52AM 43.5998 -79.4662 275° West  Level FlightAware Approximate
11:53AM 43.6167 -79.7333 144° Southeast 200 230 5,000  Level Toronto Center
11:54AM 43.5667 -79.6833 136° Southeast 260 299 6,900 960 Climbing Toronto Center
11:55AM 43.5167 -79.6167 90° East 280 322 7,000  Climbing Toronto Center
11:56AM 43.5167 -79.5000 90° East 300 345 7,000 60 Level Toronto Center
11:57AM 43.5167 -79.3833 90° East 290 334 7,200 1,320 Climbing Toronto Center
11:58AM 43.5167 -79.2667 101° East 300 345 9,700 2,100 Climbing Toronto Center
11:59AM 43.5000 -79.1500 117° Southeast 330 380 11,500 1,500 Climbing Toronto Center
12:00PM 43.4500 -79.0167 109° East 380 437 12,800 1,620 Climbing Toronto Center
12:01PM 43.4167 -78.8833 105° East 400 460 14,800 1,800 Climbing Toronto Center
12:02PM 43.3833 -78.7167 110° East 420 483 16,500 1,680 Climbing Toronto Center
12:03PM 43.3361 -78.5367 108° East 435 501 18,500 1,620 Climbing Cleveland Center
12:04PM 43.2956 -78.3697 109° East 457 526 20,100 1,500 Climbing Cleveland Center
12:05PM 43.2525 -78.1975 108° East 470 541 21,600 1,500 Climbing Cleveland Center
12:06PM 43.2092 -78.0197 109° East 482 555 23,100 1,500 Climbing Cleveland Center
12:07PM 43.1633 -77.8394 109° East 488 562 24,600 1,320 Climbing Cleveland Center
12:08PM 43.1172 -77.6594 109° East 497 572 25,800 1,140 Climbing Cleveland Center
12:09PM 43.0756 -77.4964 110° East 502 578 26,900 1,140 Climbing Cleveland Center
12:10PM 43.0267 -77.3142 109° East 502 578 28,100 1,260 Climbing Cleveland Center
12:11PM 42.9797 -77.1294 110° East 502 578 29,500 1,140 Climbing Cleveland Center
12:13PM 42.8833 -76.7667 107° East 520 598 31,400 900 Climbing Toronto Center
12:14PM 42.8669 -76.6928 111° Southeast 516 594 31,700 720 Climbing Boston Center
12:15PM 42.8097 -76.4878 109° East 516 594 32,600 900 Climbing Boston Center
12:16PM 42.7619 -76.3036 111° Southeast 522 601 33,600 660 Climbing Boston Center
12:17PM 42.7078 -76.1164 110° East 522 601 34,000 180 Climbing Boston Center
12:18PM 42.6556 -75.9214 111° Southeast 528 608 34,000 -660 Level Boston Center
12:19PM 42.6008 -75.7264 111° Southeast 539 620 32,700 -1,560 Descending Boston Center
12:20PM 42.5458 -75.5347 110° East 544 626 30,900 -1,920 Descending Boston Center
12:21PM 42.4947 -75.3433 113° Southeast 544 626 28,900 -2,040 Descending Boston Center
12:22PM 42.4386 -75.1664 116° Southeast 531 611 26,900 -2,040 Descending Boston Center
12:23PM 42.3778 -75.0006 117° Southeast 512 589 24,900 -2,040 Descending Boston Center
12:24PM 42.3186 -74.8436 117° Southeast 504 580 22,900 -1,980 Descending Boston Center
12:25PM 42.2553 -74.6758 116° Southeast 504 580 21,000 -1,740 Descending Boston Center
12:26PM 42.2000 -74.5225 116° Southeast 487 560 19,500 -1,020 Descending Boston Center
12:27PM 42.1464 -74.3750 120° Southeast 446 513 19,000 -300 Descending Boston Center
12:28PM 42.0761 -74.2133 123° Southeast 446 513 19,000  Level Boston Center
12:29PM 42.0072 -74.0717 151° Southeast 452 520 19,000  Level Boston Center
12:30PM 41.9164 -74.0053 168° South 416 479 19,000 -900 Level Boston Center
12:31PM 41.7981 -73.9717 170° South 397 457 17,200 -2,400 Descending Boston Center
12:32PM 41.7025 -73.9500 169° South 391 450 14,300 -2,700 Descending Boston Center
12:33PM 41.5925 -73.9222 170° South 381 438 11,900 -1,980 Descending Boston Center
12:34PM 41.5000 -73.9000 163° South 312 359 10,200 -1,260 Descending New York TRACON
12:35PM 41.4167 -73.8667 143° Southeast 275 316 9,200 -780 Descending New York TRACON
12:36PM 41.3500 -73.8000 151° Southeast 279 321 8,600 -1,020 Descending New York TRACON
12:37PM 41.2833 -73.7500 143° Southeast 269 310 7,200 -1,380 Descending New York TRACON
12:38PM 41.2333 -73.7000 153° Southeast 239 275 5,900 -1,140 Descending New York TRACON
12:39PM 41.1833 -73.6667 153° Southeast 198 228 5,000 -480 Descending New York TRACON
12:40PM 41.1333 -73.6333 166° South 189 217 5,000 -240 Level New York TRACON
12:41PM 41.0833 -73.6167 217° Southwest 199 229 4,600 -540 Descending New York TRACON
12:42PM 41.0500 -73.6500 207° Southwest 186 214 4,000 -300 Descending New York TRACON
12:43PM 41.0000 -73.6833 217° Southwest 161 185 4,000  Level New York TRACON
12:44PM 40.9667 -73.7167 217° Southwest 159 183 4,000 -300 Level New York TRACON
12:45PM 40.9333 -73.7500 217° Southwest 161 185 3,400 -780 Descending New York TRACON
12:46PM 40.9000 -73.7833 217° Southwest 164 189 2,500 -900 Descending New York TRACON